Cherokee, IA

1:21 AM CDT on April 26, 2018 (GMT -0500)
Cherokee Municipal

Weather History for KCKP - March, 2013

Change the Weather History Date:

Saturday, March 9, 2013

  Actual Average Record
Temperature  
Mean Temperature 39 °F -  
Max Temperature 46 °F 40 °F 62 °F (2014)
Min Temperature 32 °F 17 °F -8 °F (1969)
Degree Days  
Heating Degree Days 26    
Moisture  
Dew Point 38 °F    
Average Humidity 96    
Maximum Humidity 99    
Minimum Humidity 92    
Precipitation  
Precipitation 0.17 in - - ()
Sea Level Pressure  
Sea Level Pressure 29.73 in    
Wind  
Wind Speed 9 mph (SSE)    
Max Wind Speed 18 mph    
Max Gust Speed 26 mph    
Visibility 4 miles    
Events Fog , Rain , Snow , Thunderstorm    
Averages and records for this station are not official NWS values.
T = Trace of Precipitation, MM = Missing Value Source: NWS Daily Summary

Daily Weather History Graph

Daily Weather History Graph

Search for Another Location

Airport or City:

Astronomy

Mar. 09, 2013 Rise Set
Actual Time 6:44 AM CST 6:21 PM CST
Civil Twilight 6:15 AM CST 6:50 PM CST
Nautical Twilight 5:43 AM CST 7:22 PM CST
Astronomical Twilight 5:10 AM CST 7:55 PM CST
Moon 5:11 AM CST (3/9) 4:23 PM CST (3/9)
Length of Visible Light 12h 34m
Length of Day
11h 37m
Waning Crescent, 5% of the Moon is Illuminated
Mar 9
Waning Crescent
Mar 11
New
Mar 19
First Quarter
Mar 27
Full
Apr 2
Last Quarter

Hourly Weather History & Observations

Time (CST) Temp. Windchill Dew Point Humidity Pressure Visibility Wind Dir Wind Speed Gust Speed Precip Events Conditions
12:15 AM 35.8 °F 28.3 °F 33.8 °F 92% 29.94 in 5.0 mi SE 10.4 mph - N/A Rain Rain
12:35 AM 36.0 °F 29.0 °F 34.0 °F 93% 29.92 in 5.0 mi SE 9.2 mph - 0.01 in Rain Light Rain
12:55 AM 36.0 °F 28.5 °F 34.2 °F 93% 29.91 in 3.0 mi SE 10.4 mph - 0.02 in Rain Rain
1:15 AM 36.5 °F 29.2 °F 34.9 °F 94% 29.91 in 3.0 mi SSE 10.4 mph - 0.02 in Rain Rain
1:35 AM 36.5 °F 29.2 °F 35.1 °F 95% 29.90 in 4.0 mi SSE 10.4 mph 16.1 mph 0.02 in Rain , Thunderstorm Light Thunderstorms and Rain
1:55 AM 36.5 °F 29.2 °F 35.1 °F 95% 29.89 in 4.0 mi SSE 10.4 mph - 0.04 in Rain Rain
2:15 AM 36.5 °F 29.2 °F 35.2 °F 95% 29.88 in 4.0 mi SSE 10.4 mph - 0.01 in Rain , Thunderstorm Light Thunderstorms and Rain
2:35 AM 36.5 °F 29.2 °F 35.1 °F 95% 29.87 in 4.0 mi SSE 10.4 mph - 0.01 in Rain Light Rain
2:55 AM 36.5 °F 29.2 °F 35.2 °F 95% 29.86 in 4.0 mi SSE 10.4 mph - 0.01 in   Light Drizzle
3:15 AM 36.5 °F 31.8 °F 35.4 °F 96% 29.85 in 4.0 mi SSE 5.8 mph - 0.01 in Rain Rain
3:35 AM 36.5 °F 31.8 °F 35.6 °F 97% 29.87 in 3.0 mi South 5.8 mph - 0.02 in Rain Rain
3:55 AM 36.5 °F 31.0 °F 35.2 °F 95% 29.85 in 4.0 mi SSE 6.9 mph - 0.02 in   Drizzle
4:15 AM 36.5 °F 30.3 °F 35.6 °F 97% 29.84 in 4.0 mi SSE 8.1 mph - N/A   Overcast
4:35 AM 36.5 °F 31.0 °F 35.2 °F 95% 29.83 in 4.0 mi SE 6.9 mph - N/A   Overcast
4:55 AM 36.5 °F 30.3 °F 35.6 °F 97% 29.83 in 4.0 mi SE 8.1 mph - N/A   Overcast
5:15 AM 36.5 °F 31.0 °F 35.2 °F 95% 29.82 in 5.0 mi SE 6.9 mph - N/A   Overcast
5:35 AM 36.5 °F 30.3 °F 35.2 °F 95% 29.80 in 5.0 mi ESE 8.1 mph - N/A   Overcast
5:55 AM 36.5 °F 30.3 °F 35.1 °F 95% 29.79 in 4.0 mi SE 8.1 mph - N/A   Overcast
6:15 AM 36.0 °F 30.3 °F 34.7 °F 95% 29.80 in 4.0 mi SE 6.9 mph - N/A   Overcast
6:35 AM 36.0 °F 30.3 °F 34.9 °F 96% 29.78 in 4.0 mi SE 6.9 mph - N/A   Overcast
6:55 AM 36.5 °F 29.7 °F 35.6 °F 97% 29.77 in 4.0 mi SE 9.2 mph - N/A Rain Light Rain
7:15 AM 36.5 °F 30.3 °F 35.6 °F 97% 29.77 in 2.5 mi SE 8.1 mph - 0.02 in Rain Rain
7:35 AM 36.7 °F 30.5 °F 35.6 °F 96% 29.75 in 3.0 mi ESE 8.1 mph - 0.02 in Rain Rain
7:55 AM 36.5 °F 31.0 °F 35.6 °F 97% 29.74 in 3.0 mi SE 6.9 mph - 0.04 in Rain Light Rain
8:15 AM 36.9 °F 31.4 °F 35.8 °F 96% 29.75 in 4.0 mi SSE 6.9 mph - N/A   Overcast
8:35 AM 37.4 °F 30.8 °F 36.0 °F 95% 29.75 in 4.0 mi SSE 9.2 mph - N/A   Overcast
8:55 AM 37.4 °F 32.1 °F 36.1 °F 95% 29.73 in 4.0 mi SSE 6.9 mph - N/A   Overcast
9:15 AM 37.8 °F 31.8 °F 36.5 °F 95% 29.72 in 4.0 mi SSE 8.1 mph - N/A   Overcast
9:35 AM 38.5 °F 31.6 °F 37.0 °F 95% 29.71 in 4.0 mi SSE 10.4 mph - N/A   Overcast
9:55 AM 39.2 °F 35.0 °F 37.6 °F 94% 29.70 in 4.0 mi SSE 5.8 mph - N/A   Light Drizzle
10:15 AM 39.2 °F 33.0 °F 37.6 °F 94% 29.69 in 3.0 mi SSE 9.2 mph - 0.01 in Rain Rain
10:35 AM 39.6 °F 32.5 °F 37.9 °F 94% 29.69 in 4.0 mi SSE 11.5 mph 17.3 mph 0.01 in Rain Light Rain
10:55 AM 39.6 °F 33.0 °F 37.9 °F 94% 29.69 in 4.0 mi SSE 10.4 mph - 0.01 in   Light Drizzle
11:15 AM 40.1 °F 33.6 °F 38.8 °F 95% 29.67 in 4.0 mi SSE 10.4 mph 16.1 mph N/A   Overcast
11:35 AM 41.2 °F 34.5 °F 39.6 °F 94% 29.67 in 5.0 mi South 11.5 mph - N/A   Overcast
11:55 AM 41.7 °F 36.1 °F 39.7 °F 93% 29.66 in 5.0 mi South 9.2 mph - N/A   Overcast
12:15 PM 42.1 °F 36.1 °F 40.3 °F 93% 29.66 in 5.0 mi South 10.4 mph - N/A   Overcast
12:35 PM 43.2 °F 36.6 °F 41.2 °F 93% 29.65 in 5.0 mi South 12.7 mph 17.3 mph N/A   Overcast
12:55 PM 43.7 °F 37.7 °F 41.7 °F 93% 29.64 in 5.0 mi South 11.5 mph - N/A   Overcast
1:15 PM 44.2 °F 38.8 °F 42.4 °F 93% 29.63 in 5.0 mi South 10.4 mph - N/A   Overcast
1:35 PM 45.0 °F 38.2 °F 43.0 °F 93% 29.62 in 4.0 mi South 15.0 mph 18.4 mph N/A   Overcast
1:55 PM 45.1 °F 38.4 °F 43.3 °F 93% 29.62 in 4.0 mi South 15.0 mph 20.7 mph N/A   Overcast
2:15 PM 45.5 °F 39.9 °F 43.9 °F 94% 29.61 in 4.0 mi South 11.5 mph - N/A   Overcast
2:35 PM 45.9 °F 40.4 °F 44.2 °F 94% 29.62 in 4.0 mi South 11.5 mph - N/A   Overcast
2:55 PM 45.9 °F 40.8 °F 44.4 °F 95% 29.62 in 3.0 mi SSW 10.4 mph - N/A   Overcast
3:15 PM 45.9 °F 39.7 °F 44.4 °F 95% 29.62 in 3.0 mi South 13.8 mph - N/A   Overcast
3:35 PM 46.0 °F 43.1 °F 44.6 °F 95% 29.62 in 3.0 mi South 5.8 mph - N/A   Overcast
3:55 PM 45.5 °F 40.8 °F 44.2 °F 95% 29.62 in 2.5 mi South 9.2 mph - N/A   Overcast
4:15 PM 45.3 °F 41.6 °F 44.2 °F 96% 29.63 in 2.0 mi SSW 6.9 mph - N/A   Overcast
4:35 PM 44.2 °F 40.3 °F 43.2 °F 96% 29.62 in 1.8 mi SSE 6.9 mph - N/A   Overcast
4:55 PM 44.1 °F 42.5 °F 43.3 °F 97% 29.62 in 1.5 mi SSE 3.5 mph - N/A   Overcast
5:15 PM 43.7 °F 42.1 °F 43.0 °F 97% 29.62 in 1.2 mi South 3.5 mph - N/A   Overcast
5:35 PM 43.7 °F 39.7 °F 43.0 °F 97% 29.63 in 1.0 mi South 6.9 mph - N/A   Overcast
5:55 PM 42.8 °F 40.1 °F 42.1 °F 97% 29.64 in 0.5 mi SSE 4.6 mph - N/A Fog Fog
6:15 PM 42.8 °F 38.6 °F 42.3 °F 98% 29.63 in 0.2 mi North 6.9 mph - N/A   Light Drizzle
6:35 PM 41.9 °F 39.0 °F 41.4 °F 98% 29.64 in 0.5 mi NNE 4.6 mph - N/A Rain Light Rain
6:55 PM 41.4 °F 39.4 °F 41.0 °F 99% 29.66 in 0.8 mi ESE 3.5 mph - N/A   Overcast
7:15 PM 41.0 °F 38.0 °F 40.5 °F 98% 29.67 in 0.5 mi NW 4.6 mph - N/A Rain Heavy Rain
7:35 PM 40.3 °F 33.4 °F 39.9 °F 99% 29.69 in 1.0 mi NW 11.5 mph - N/A   Drizzle
7:55 PM 38.1 °F 28.4 °F 37.6 °F 98% 29.69 in 2.5 mi North 18.4 mph 23.0 mph 0.01 in   Drizzle
8:15 PM 35.6 °F 25.9 °F 35.1 °F 98% 29.71 in 3.0 mi North 16.1 mph 26.5 mph N/A Rain Light Rain
8:35 PM 35.1 °F 26.9 °F 34.7 °F 99% 29.71 in 5.0 mi North 11.5 mph 21.9 mph N/A   Overcast
8:55 PM 34.7 °F 25.9 °F 33.8 °F 97% 29.72 in 7.0 mi North 12.7 mph 18.4 mph N/A   Overcast
9:15 PM 34.2 °F 25.2 °F 33.3 °F 97% 29.73 in 5.0 mi North 12.7 mph - N/A   Light Drizzle
9:35 PM 33.8 °F 25.3 °F 32.9 °F 96% 29.74 in 4.0 mi North 11.5 mph 20.7 mph N/A Snow Light Snow
9:55 PM 33.4 °F 23.9 °F 32.4 °F 96% 29.75 in 3.0 mi North 13.8 mph 21.9 mph N/A Rain Rain
10:15 PM 33.3 °F 23.2 °F 32.2 °F 96% 29.75 in 3.0 mi North 15.0 mph 25.3 mph N/A   Drizzle
10:35 PM 33.1 °F 23.4 °F 32.0 °F 96% 29.77 in 5.0 mi North 13.8 mph 21.9 mph N/A Rain Light Rain
10:55 PM 32.9 °F 25.3 °F 32.0 °F 96% 29.78 in 2.0 mi North 9.2 mph - 0.01 in Snow Light Snow
11:15 PM 32.4 °F 23.5 °F 31.8 °F 98% 29.77 in 5.0 mi North 11.5 mph 18.4 mph 0.01 in Snow Light Snow
11:35 PM 32.2 °F 22.3 °F 31.8 °F 99% 29.76 in 7.0 mi North 13.8 mph 17.3 mph 0.01 in   Overcast
11:55 PM 32.4 °F 23.5 °F 31.6 °F 97% 29.77 in 7.0 mi North 11.5 mph 20.7 mph 0.01 in Snow Light Snow